Location: Unspecified
(0.0000°N, 0.0000°E)
Time: 09:29:51
(UTC+00:00)

ARIANE 6 FM1 Upper Stage - Pass Details

Date: 08 November 2025
Orbit: 523 x 612 km, 62.0° (Epoch: 12 November)

Event Time Altitude Azimuth Distance (km) Brightness Sun altitude
Exits shadow 04:01:12 19° 196° (SSW) 1,382 4.6 -24.5°
Drops below altitude 10° 04:02:48 10° 182° (S) 1,903 5.5 -24.1°
Sets 04:05:17 0° 171° (S) 2,821 6.6 -23.5°
